FW5156 Weather Reports


Display with metric or nautical units.
time (UTC)temp
F
wind
direction
speed
MPH
gust
MPH
rain 1hr
in
rain 24hr
in
rain mn
in
humidity
%
barometer
mb
20260506033017 47 0.0 0.0 0.05 0.87 0.87 96 1009.1
20260506032017 47 0.0 0.0 0.05 0.87 0.87 96 1009.3
20260506031018 47 0.0 0.0 0.04 0.86 0.86 96 1009.7
20260506030017 47 0.0 0.0 0.04 0.84 0.84 96 1010.0
20260506025017 47 0.0 0.0 0.08 0.83 0.83 96 1009.3
20260506024017 47 0.0 0.0 0.07 0.82 0.82 96 1009.1
20260506023017 47 0.0 0.0 0.07 0.82 0.82 96 1008.6
20260506022017 47 0.0 0.0 0.08 0.82 0.82 96 1008.6
20260506021017 47 0.0 0.0 0.08 0.82 0.82 96 1008.3
20260506020018 47 0.0 0.0 0.06 0.80 0.80 96 1009.2
20260506015017 47 0.0 0.0 0.02 0.75 0.75 96 1009.7
20260506014017 47 0.0 0.0 0.03 0.75 0.75 96 1008.0
20260506013037 47 0.0 0.0 0.04 0.75 0.75 96 1007.5
20260506012037 47 0.0 0.0 0.03 0.74 0.74 96 1008.0
20260506011037 47 0.0 0.0 0.04 0.74 0.74 96 1007.7
20260506010017 47 0.0 0.0 0.05 0.74 0.74 96 1007.9
20260506005018 47 0.0 0.0 0.04 0.73 0.73 96 1008.3
20260506004017 47 0.0 0.0 0.03 0.72 0.72 96 1008.3
20260506003017 47 0.0 0.0 0.02 0.71 0.71 96 1008.2
20260506002037 47 0.0 0.0 0.03 0.71 0.71 96 1007.7
20260506001017 47 0.0 0.0 0.02 0.70 0.70 96 1008.2
20260506000017 47 0.0 0.0 0.02 0.69 0.69 96 1008.2
20260505235037 47 0.0 0.0 0.03 0.69 0.69 96 1007.6
20260505234018 47 0.0 0.0 0.04 0.69 0.69 95 1007.8
20260505233017 47 0.0 0.0 0.05 0.69 0.69 95 1008.1
20260505232017 47 0.0 0.0 0.05 0.68 0.68 95 1008.2
20260505231037 47 0.0 0.0 0.07 0.68 0.68 95 1008.7
20260505230017 47 0.0 0.0 0.06 0.67 0.67 95 1008.2
20260505225017 47 0.0 0.0 0.06 0.66 0.66 95 1008.5
20260505224017 48 0.0 0.0 0.05 0.65 0.65 95 1008.4
20260505223057 48 0.0 0.0 0.04 0.64 0.64 95 1008.2
20260505222038 48 0.0 0.0 0.04 0.63 0.63 95 1008.3
20260505221017 49 0.0 0.0 0.02 0.61 0.61 95 1008.2
20260505220017 49 0.0 0.0 0.02 0.61 0.61 95 1008.5
20260505215017 49 0.0 0.0 0.01 0.60 0.60 95 1008.4
20260505214017 50 0.0 0.0 0.01 0.60 0.60 95 1008.3
20260505213017 50 0.0 3.0 0.01 0.60 0.60 94 1008.0
20260505212018 51 0.0 2.0 0.00 0.59 0.59 94 1008.0
20260505211017 53 0.0 0.0 0.00 0.59 0.59 94 1007.8
20260505210017 55 0.0 0.0 0.00 0.59 0.59 95 1007.8
20260505205017 56 0.0 0.0 0.00 0.59 0.59 95 1007.5
20260505204037 57 0.0 0.0 0.00 0.59 0.59 95 1007.5
20260505203017 57 0.0 0.0 0.00 0.59 0.59 95 1007.6
20260505202017 58 0.0 0.0 0.00 0.59 0.59 95 1007.7
20260505201018 58 0.0 0.0 0.00 0.59 0.59 95 1007.6
20260505200017 58 0.0 0.0 0.00 0.59 0.59 95 1007.6
20260505195017 58 0.0 0.0 0.01 0.59 0.59 95 1007.6
20260505194017 58 0.0 0.0 0.01 0.59 0.59 96 1007.6
20260505193018 58 0.0 0.0 0.02 0.59 0.59 96 1007.7
20260505192017 58 0.0 3.0 0.02 0.59 0.59 95 1007.8
20260505191017 58 0.0 0.0 0.02 0.59 0.59 95 1007.8
20260505190018 58 0.0 0.0 0.02 0.59 0.59 95 1007.9
20260505185017 58 0.0 0.0 0.02 0.58 0.58 95 1008.0
20260505184017 58 0.0 0.0 0.04 0.58 0.58 95 1008.0
20260505183017 58 0.0 0.0 0.04 0.57 0.57 95 1008.0
20260505182017 58 0.0 0.0 0.06 0.58 0.57 95 1007.9
20260505181017 58 0.0 0.0 0.08 0.59 0.57 95 1008.1
20260505180017 58 0.0 0.0 0.09 0.60 0.57 95 1007.8
20260505175018 58 0.0 0.0 0.09 0.60 0.56 94 1008.1
20260505174017 58 0.0 0.0 0.08 0.58 0.54 94 1008.6
20260505173017 58 0.0 0.0 0.07 0.57 0.53 94 1008.8
20260505172017 58 0.0 0.0 0.05 0.55 0.51 93 1009.0
20260505170017 58 0.0 0.0 0.02 0.52 0.48 93 1009.2
20260505165017 58 0.0 0.0 0.01 0.51 0.47 92 1008.8
20260505164018 58 0.0 0.0 0.00 0.50 0.46 91 1009.5
20260505163037 59 0.0 0.0 0.00 0.50 0.46 91 1009.5
20260505162017 59 0.0 0.0 0.00 0.50 0.46 91 1009.4
20260505161017 59 0.0 0.0 0.00 0.50 0.46 91 1009.6
20260505153038 60 0.0 0.0 0.00 0.50 0.46 92 1009.1
20260505152017 59 0.0 0.0 0.00 0.50 0.46 92 1008.9
20260505151037 59 0.0 0.0 0.00 0.50 0.46 93 1009.0
20260505125017 56 0.0 0.0 0.00 0.50 0.46 96 1008.4
20260505124017 56 225 1.0 5.0 0.00 0.50 0.46 96 1008.3
20260505123037 56 0.0 8.0 0.00 0.50 0.46 96 1008.1
20260505122037 56 0.0 0.0 0.00 0.50 0.46 96 1008.0
20260505121038 55 0.0 0.0 0.00 0.50 0.46 96 1007.9
20260505120017 55 0.0 0.0 0.00 0.50 0.46 96 1007.9
20260505115017 55 0.0 0.0 0.00 0.50 0.46 96 1007.8
20260505114037 55 0.0 0.0 0.00 0.50 0.46 96 1007.8
20260505113017 55 0.0 0.0 0.00 0.50 0.46 96 1007.8
20260505112017 55 0.0 0.0 0.01 0.50 0.46 96 1007.4
20260505111017 55 0.0 0.0 0.01 0.50 0.46 96 1007.4
20260505102037 55 0.0 2.0 0.00 0.49 0.45 95 1007.5
20260505101017 55 248 1.0 4.0 0.00 0.49 0.45 95 1007.9
20260505100058 55 0.0 3.0 0.01 0.49 0.45 95 1007.5
20260505095018 55 0.0 0.0 0.04 0.49 0.45 95 1006.9
20260505094017 55 0.0 0.0 0.07 0.49 0.45 95 1007.0
20260505093017 55 0.0 5.0 0.10 0.49 0.45 95 1007.1
20260505092017 55 0.0 4.0 0.14 0.49 0.45 95 1006.9
20260505091017 55 135 1.0 4.0 0.16 0.49 0.45 95 1006.7
20260505090017 55 0.0 4.0 0.18 0.48 0.44 95 1007.5
20260505085017 56 0.0 0.0 0.16 0.45 0.41 95 1008.3
20260505084038 56 0.0 4.0 0.14 0.42 0.38 95 1008.6
20260505083017 56 0.0 0.0 0.12 0.39 0.35 94 1008.7
20260505082017 56 0.0 0.0 0.08 0.35 0.32 94 1008.2
20260505081017 56 0.0 0.0 0.09 0.33 0.29 94 1008.3
20260505080017 56 0.0 0.0 0.09 0.30 0.26 94 1008.4
20260505075017 56 0.0 3.0 0.12 0.29 0.25 94 1008.6
20260505074037 56 0.0 0.0 0.14 0.28 0.24 94 1008.8
20260505073018 56 0.0 0.0 0.14 0.27 0.23 94 1008.7
20260505072017 56 0.0 0.0 0.14 0.27 0.23 93 1008.1
20260505071017 56 0.0 1.0 0.12 0.24 0.20 93 1008.2
20260505070017 56 0.0 3.0 0.10 0.21 0.17 92 1007.9
20260505065017 57 0.0 3.0 0.10 0.17 0.13 92 1007.0
20260505064017 57 0.0 3.0 0.09 0.14 0.10 92 1006.8
20260505063017 58 0.0 0.0 0.09 0.13 0.09 91 1005.9
20260505062017 58 0.0 4.0 0.09 0.13 0.09 90 1005.7
20260505061017 58 0.0 1.0 0.08 0.12 0.08 88 1006.2
20260505060017 59 0.0 0.0 0.07 0.11 0.07 85 1006.6
20260505055017 61 0.0 0.0 0.03 0.07 0.03 81 1007.1
20260505054017 63 0.0 0.0 0.01 0.05 0.01 75 1007.2
20260505053017 65 0.0 2.0 0.00 0.04 0.00 66 1006.8
20260505052037 66 0.0 4.0 0.00 0.04 0.00 64 1006.2
20260505051037 67 0.0 6.0 0.00 0.04 0.00 58 1006.2
20260505041017 68 248 2.0 9.0 0.00 0.04 0.00 54 1004.9
20260505040017 68 225 1.0 10.0 0.00 0.04 0.00 54 1004.9
20260505035037 68 225 1.0 7.0 0.00 0.04 0.04 53 1005.1
20260505034017 68 203 2.0 7.0 0.00 0.04 0.04 53 1005.0